Tracking 34717 objects as of 14-Jul-2026
HD Live streaming from Space Station
objects crossing your sky now

TIANQI 35

Track TIANQI 35 now!
10-day predictions


NORAD ID: 62367
Int'l Code: 2024-245C
Perigee: 897.6 km
Apogee: 909.8 km
Inclination: 45.0 °
Period: 102.9 minutes
Semi major axis: 7274 km
RCS: Unknown
Launch date: December 19, 2024
Source: People's Republic of China (PRC)
Launch site: Yellow Sea Launch Area, China (YSLA)
Your satellite tracking list
Your tracking list is empty




NASA's NSSDC Master Catalog

Two Line Element Set (TLE):
1 62367U 24245C   26195.12034924 -.00000085  00000-0  29925-4 0  9994
2 62367  44.9830 201.8856 0008442 137.3949 222.7540 13.99201969 80119
Source of the keplerian elements: AFSPC